一网星座-0361星 (ONEWEB-0361 )

导读 | 星芒AI

ONEWEB-0361 是 OneWeb 卫星星座计划中的一颗低轨通信卫星,旨在为全球提供高速互联网服务。该卫星采用标准化设计,由阿丽亚娜集团制造,搭载星间链路和多波束天线,支持广域覆盖与高效数据传输。2022 年 9 月,该卫星随其他 34 颗一同由联盟号火箭从印度萨迪什·达万航天中心发射升空。ONEWEB-0361 的部署有助于完善 OneWeb 的全球通信网络,特别是在偏远和地面网络难以覆盖的地区。

基本信息
目录编号:
49287
目录名称:
ONEWEB-0361
国际标识:
2021-090J
轨道中心:
EARTH
卫星名称:
一网星座-0361星
卫星全名:
一网星座-0361星 (ONEWEB-0361 )
卫星状态:
在轨 (已飞行1477 天)
发射日期:
2021-10-14 UTC
国别 :
英国 (GB)
星等 :
--
轨道信息
数据来源 国际轨道数据
星历时间: 2025-10-30T02:32:19+0800
10小时前
查看轨道信息
半长轴: 7559.873km
偏心率: 0.0001775
轨道倾角: 87.919°
近地点辐角 91.973°
升交点赤经 320.394°
平近点角 268.161°
近地点: 1180.396km
远地点: 1183.08km
周期: 109.026分钟
每日圈数: 13.207817
详细信息
平衡模式:
三轴稳定
覆盖范围:
全球
运营商:
一网卫星公司
运营商所在国:
英国
制造商(研发单位):
一网卫星公司
制造商所在国:
英国
使用方式:
暂无
卫星简介
OneWeb卫星网络由648颗重约125公斤的微型卫星组成,运行在1200公里的轨道上。 每颗卫星都能够提供至少每秒8千兆位的吞吐量,以使用其高吞吐量的Ku频段有效载荷为家庭和移动平台提供互联网接入。该卫星仍在工作。
2D轨道图
3D轨道图
轨道高度分析图
轨道倾角分析图
轨道综合分析图
查看轨道综合分析图